Escondido, California, United States (92025)
Lat: 33.12N, Lon: 117.09W
Wx Zone: CAZ050
Local Info
Past Weather Observations for Yesterday

NOTE: This archive is for the closest National Weather Service station to Escondido. Information may differ from the station used for current weather conditions.

Click here for Long-term Archive

Time Weather Temperature Dewpoint Humidity Pressure Winds Precip Visibility
23:53
Clear
70°F / 21°C 64°F / 18°C 83% 29.83 in
(1010 mb)
SSE 3.5 mph
(SSE 6 kph)
- 10SM
22:53
Clear
70°F / 21°C 66°F / 19°C 88% 29.83 in
(1010 mb)
Calm - 10SM
21:53
Clear
70°F / 21°C 66°F / 19°C 88% 29.83 in
(1010 mb)
S 3.5 mph
(S 6 kph)
- 10SM
20:53
Clear
72°F / 22°C 66°F / 19°C 83% 29.83 in
(1010 mb)
S 4.6 mph
(S 7 kph)
- 10SM
19:53
Clear
72°F / 22°C 66°F / 19°C 83% 29.83 in
(1010 mb)
SW 4.6 mph
(SW 7 kph)
- 10SM
18:53
Clear
72°F / 22°C 66°F / 19°C 83% 29.8 in
(1009 mb)
SW 5.8 mph
(SW 9 kph)
- 9SM
17:53
Clear
72°F / 22°C 66°F / 19°C 83% 29.8 in
(1009 mb)
SW 6.9 mph
(SW 11 kph)
- 10SM
16:53
Clear
73°F / 23°C 66°F / 19°C 78% 29.8 in
(1009 mb)
Variable 6.9 mph
(Variable 11 kph)
- 10SM
15:53
Clear
73°F / 23°C 66°F / 19°C 78% 29.8 in
(1009 mb)
SSW 6.9 mph
(SSW 11 kph)
- 10SM
14:53
Clear
75°F / 24°C 66°F / 19°C 74% 29.8 in
(1009 mb)
SW 10.4 mph
(SW 17 kph)
- 10SM
13:53
Clear
75°F / 24°C 66°F / 19°C 74% 29.83 in
(1010 mb)
SSW 9.2 mph
(SSW 15 kph)
- 10SM
12:53
Clear
75°F / 24°C 66°F / 19°C 74% 29.83 in
(1010 mb)
SSW 8.1 mph
(SSW 13 kph)
- 10SM
11:53
Clear
75°F / 24°C 66°F / 19°C 74% 29.83 in
(1010 mb)
SW 8.1 mph
(SW 13 kph)
- 10SM
10:53
Clear
77°F / 25°C 68°F / 20°C 74% 29.86 in
(1011 mb)
Variable 6.9 mph
(Variable 11 kph)
- 10SM
09:53
Clear
75°F / 24°C 68°F / 20°C 78% 29.86 in
(1011 mb)
SSW 8.1 mph
(SSW 13 kph)
- 10SM
08:53
Clear
75°F / 24°C 70°F / 21°C 83% 29.86 in
(1011 mb)
SSW 6.9 mph
(SSW 11 kph)
- 9SM
07:53
Partly Cloudy
73°F / 23°C 70°F / 21°C 89% 29.86 in
(1011 mb)
SSW 6.9 mph
(SSW 11 kph)
- 8SM
07:42
Partly Cloudy
73°F / 23°C 68°F / 20°C 83% 29.86 in
(1011 mb)
SW 4.6 mph
(SW 7 kph)
- 8SM
06:53
Mostly Cloudy
72°F / 22°C 70°F / 21°C 94% 29.83 in
(1010 mb)
Variable 3.5 mph
(Variable 6 kph)
- 7SM
06:15
Partly Cloudy
72°F / 22°C 68°F / 20°C 88% 29.83 in
(1010 mb)
Calm - 7SM
05:53
Clear
72°F / 22°C 70°F / 21°C 94% 29.83 in
(1010 mb)
Calm - 7SM
04:53
Clear
Fog And Mist
70°F / 21°C 68°F / 20°C 94% 29.83 in
(1010 mb)
Calm - 6SM
03:53
Clear
70°F / 21°C 68°F / 20°C 94% 29.8 in
(1009 mb)
Calm - 7SM
03:08
Partly Cloudy
70°F / 21°C 68°F / 20°C 94% 29.8 in
(1009 mb)
Calm - 7SM
02:53
Mostly Cloudy
70°F / 21°C 68°F / 20°C 94% 29.8 in
(1009 mb)
Calm - 7SM
01:53
Overcast
72°F / 22°C 68°F / 20°C 88% 29.83 in
(1010 mb)
Calm - 8SM
01:33
Mostly Cloudy
72°F / 22°C 68°F / 20°C 88% 29.83 in
(1010 mb)
Calm - 9SM
01:10
Partly Cloudy
70°F / 21°C 66°F / 19°C 88% 29.83 in
(1010 mb)
Calm - 10SM
00:53
Clear
72°F / 22°C 66°F / 19°C 83% 29.83 in
(1010 mb)
Calm - 10SM
Time Weather Temperature Dewpoint Humidity Pressure Winds Precip Visibility


Weather for websites

WeatherForYou.com, LLC is not responsible for any damages or problems caused by this service. Current weather conditions are obtained from the closest station including government and personal stations which may have varying degrees of accuracy. Weather forecasts are derived from the NOAA NDFD. Like all things, this site belongs to Jesus Christ... He just trusts us to maintain it. If you have any questions or comments email webmaster@weatherforyou.com

Copyright © 2016, WeatherForYou.com LLC. All rights reserved.